Temp
13 13 13 15 13 14 13 14 14 13 13 13 13 13 12 13 13 12 12 12 11 11 10 10 10 9 9 9 9 8 8 8 7 7 7 8 8 9
13 14 13 14 13 13 14 13 13 13 12 12 12 12 12 12 13 12 12 12 12 11 11 10 10 9 9 9 9 8 8 7 7 6 6 7 8 8
13 13 13 13 13 13 14 13 13 12 12 13 13 12 12 11 11 11 11 11 11 11 10 9 10 9 8 9 9 8 8 7 7 7 7 6 6 7
13 13 13 14 12 12 14 14 13 13 12 12 12 11 11 11 11 11 11 11 11 11 11 11 10 9 9 9 8 9 8 8 7 7 7 7 6 6
12 12 13 13 12 12 12 12 12 12 11 11 12 11 10 11 11 10 10 11 10 11 11 10 10 10 9 9 9 9 8 8 8 7 7 7 7 7
12 11 12 12 12 11 11 11 11 11 10 10 10 10 10 10 10 10 10 10 10 10 11 11 10 9 9 9 9 9 9 8 8 8 8 7 7 7
11 11 11 11 11 11 11 12 11 10 10 10 10 10 9 9 10 9 9 9 9 9 10 10 10 10 9 9 9 9 9 8 8 7 7 7 7 7
10 10 10 10 10 10 10 10 9 9 9 9 10 9 9 8 8 9 8 9 9 9 10 10 10 10 10 9 9 9 9 8 8 8 7 7 7 7
7 7 8 8 8 8 8 9 8 8 9 9 9 8 8 6 7 8 8 8 9 9 9 9 9 9 9 9 9 9 9 9 8 8 7 7 7 7
3 5 4 4 5 5 6 6 7 7 7 6 6 6 6 6 7 8 8 8 8 8 8 8 8 8 8 8 9 9 9 8 7 7 7 7 7 7
-1 0 2 2 2 3 3 3 4 5 5 4 3 3 3 5 7 7 7 7 8 7 7 8 8 8 7 6 7 8 8 8 7 7 7 7 7 7
-0 -0 1 -0 -1 0 1 1 1 1 2 2 2 2 2 2 2 4 6 6 6 5 6 6 7 7 3 2 3 4 5 5 7 7 7 6 6 7
-3 -2 -2 -2 -2 -1 -1 -1 -1 -1 -1 -1 0 1 1 2 2 3 3 3 5 4 4 4 4 4 3 2 -1 -0 1 1 0 3 3 5 2 4
-4 -4 -4 -5 -4 -3 -2 -3 -3 -2 -2 -3 -2 -1 -1 0 1 1 1 1 2 3 3 3 2 2 2 0 -0 -4 -3 -2 -2 -2 -2 -1 1 -1
-6 -6 -6 -6 -5 -5 -5 -4 -4 -5 -5 -5 -5 -5 -4 -4 -3 -2 -2 -1 -0 0 0 1 0 1 1 1 -1 -4 -5 -6 -5 -4 -4 -3 -2 -4
-7 -7 -7 -7 -7 -7 -6 -6 -6 -7 -8 -9 -8 -7 -6 -5 -4 -4 -3 -2 -3 -2 -2 -2 -2 -1 -1 -1 -1 -4 -6 -6 -7 -6 -6 -7 -6 -6
-8 -7 -7 -8 -9 -9 -9 -9 -8 -8 -8 -9 -9 -8 -7 -7 -6 -6 -5 -5 -5 -6 -6 -5 -4 -4 -4 -4 -6 -6 -7 -7 -8 -8 -8 -8 -8 -7
-9 -11 -11 -12 -12 -12 -12 -11 -11 -11 -11 -11 -10 -10 -10 -9 -8 -8 -7 -7 -7 -8 -9 -9 -8 -6 -6 -7 -8 -9 -8 -9 -9 -9 -8 -8 -9 -10
-13 -13 -13 -14 -14 -14 -14 -14 -14 -13 -12 -12 -11 -11 -11 -11 -10 -9 -9 -9 -9 -9 -10 -9 -9 -8 -8 -10 -11 -9 -8 -9 -9 -10 -10 -10 -10 -10
-15 -15 -15 -15 -15 -15 -15 -15 -14 -14 -14 -13 -13 -12 -12 -12 -12 -11 -11 -10 -10 -10 -10 -9 -9 -10 -9 -10 -11 -11 -10 -10 -10 -10 -10 -11 -11 -11
-17 -16 -16 -17 -17 -17 -16 -16 -16 -15 -15 -15 -14 -14 -13 -13 -13 -13 -13 -12 -12 -11 -11 -11 -11 -11 -10 -10 -11 -12 -12 -11 -11 -11 -11 -11 -11 -12
-18 -18 -18 -18 -18 -18 -18 -17 -17 -17 -16 -16 -16 -15 -14 -14 -14 -14 -14 -14 -14 -14 -12 -12 -12 -12 -12 -11 -12 -12 -12 -12 -12 -13 -13 -12 -12 -13
-19 -19 -19 -19 -19 -20 -19 -19 -19 -19 -18 -17 -17 -16 -16 -15 -15 -15 -15 -14 -14 -14 -14 -14 -14 -14 -13 -13 -13 -13 -14 -14 -13 -13 -13 -12 -12 -12
Height
1436 1442 1445 1448 1455 1459 1465 1465 1464 1469 1472 1473 1476 1476 1477 1480 1480 1481 1480 1480 1482 1484 1486 1488 1491 1496 1501 1506 1510 1514 1518 1521 1525 1528 1531 1533 1537 1540
1428 1432 1437 1441 1445 1450 1451 1455 1458 1462 1465 1466 1467 1470 1470 1470 1472 1473 1474 1474 1474 1475 1476 1478 1481 1486 1492 1498 1502 1506 1510 1514 1518 1520 1523 1526 1529 1533
1421 1424 1429 1433 1437 1440 1445 1448 1453 1453 1456 1457 1461 1463 1464 1464 1463 1465 1466 1467 1466 1467 1467 1468 1472 1476 1482 1489 1494 1498 1502 1506 1510 1513 1516 1519 1522 1525
1412 1419 1421 1424 1430 1434 1437 1442 1445 1447 1449 1448 1451 1454 1456 1458 1457 1456 1457 1458 1458 1458 1459 1460 1462 1467 1472 1477 1482 1487 1492 1497 1501 1505 1508 1512 1515 1518
1406 1413 1415 1417 1423 1427 1430 1435 1437 1440 1441 1442 1442 1446 1448 1450 1451 1450 1448 1450 1450 1450 1452 1453 1457 1460 1463 1467 1471 1476 1481 1486 1491 1495 1499 1503 1506 1510
1402 1406 1409 1412 1416 1420 1423 1426 1430 1433 1434 1435 1436 1439 1441 1442 1441 1442 1442 1441 1440 1442 1443 1445 1448 1450 1451 1455 1459 1464 1469 1474 1479 1484 1489 1493 1497 1501
1392 1397 1400 1405 1409 1412 1416 1419 1422 1429 1428 1428 1431 1432 1433 1435 1434 1435 1432 1432 1431 1433 1434 1435 1437 1438 1440 1442 1444 1449 1456 1461 1466 1472 1477 1482 1486 1490
1385 1389 1394 1399 1403 1406 1410 1414 1417 1419 1419 1419 1421 1422 1423 1426 1426 1425 1423 1423 1420 1421 1423 1424 1426 1426 1428 1429 1430 1433 1441 1448 1455 1460 1466 1471 1475 1479
1382 1385 1389 1393 1397 1401 1403 1405 1408 1410 1411 1412 1412 1413 1414 1414 1415 1416 1415 1413 1410 1413 1414 1413 1414 1415 1416 1417 1419 1423 1427 1434 1441 1447 1454 1459 1463 1467
1384 1383 1389 1389 1394 1396 1397 1399 1401 1402 1404 1405 1406 1406 1406 1405 1405 1404 1403 1402 1403 1403 1403 1401 1403 1403 1405 1406 1407 1410 1414 1420 1425 1432 1439 1445 1449 1453
1392 1389 1388 1390 1393 1397 1393 1396 1397 1395 1397 1399 1400 1400 1398 1397 1395 1394 1393 1392 1391 1391 1392 1392 1391 1393 1395 1396 1397 1399 1402 1407 1412 1419 1424 1430 1436 1439
1389 1396 1390 1398 1401 1396 1392 1395 1394 1393 1394 1395 1396 1394 1393 1392 1390 1388 1385 1384 1384 1383 1385 1384 1381 1384 1387 1388 1391 1393 1396 1399 1400 1405 1410 1416 1423 1425
1401 1396 1394 1402 1400 1396 1396 1397 1395 1393 1392 1394 1392 1391 1390 1387 1387 1383 1380 1379 1378 1377 1378 1377 1376 1376 1379 1381 1387 1391 1393 1396 1399 1398 1402 1406 1411 1417
1408 1403 1405 1409 1406 1403 1398 1397 1396 1395 1391 1393 1391 1389 1386 1383 1381 1379 1376 1376 1374 1373 1372 1372 1372 1374 1373 1373 1378 1386 1390 1393 1398 1401 1400 1405 1403 1417
1411 1410 1412 1412 1409 1405 1402 1402 1402 1398 1394 1396 1393 1388 1385 1383 1380 1377 1375 1373 1372 1370 1369 1369 1369 1370 1373 1373 1374 1378 1384 1390 1396 1399 1402 1402 1402 1410
1417 1416 1414 1414 1412 1409 1405 1405 1403 1400 1397 1399 1395 1392 1388 1385 1381 1378 1375 1373 1373 1369 1368 1368 1368 1368 1370 1374 1375 1377 1384 1388 1394 1399 1403 1406 1406 1411
1421 1418 1415 1415 1414 1411 1409 1408 1406 1404 1402 1400 1396 1393 1389 1387 1384 1380 1377 1375 1373 1372 1371 1369 1368 1369 1369 1372 1376 1380 1384 1391 1396 1400 1404 1407 1410 1412
1423 1421 1420 1419 1417 1415 1412 1410 1408 1406 1403 1400 1398 1395 1393 1390 1387 1383 1381 1379 1377 1375 1375 1376 1373 1372 1372 1374 1380 1384 1389 1393 1397 1401 1405 1409 1411 1413
1425 1424 1423 1421 1420 1418 1416 1413 1411 1408 1405 1403 1400 1399 1397 1394 1390 1387 1385 1383 1383 1381 1380 1379 1379 1378 1376 1377 1384 1388 1391 1395 1398 1402 1405 1408 1411 1413
1429 1428 1427 1425 1423 1420 1418 1416 1413 1411 1408 1405 1402 1400 1398 1396 1392 1391 1389 1387 1386 1384 1384 1381 1383 1382 1383 1383 1385 1390 1392 1397 1401 1402 1404 1407 1410 1414
1432 1430 1428 1426 1424 1421 1418 1416 1414 1411 1408 1405 1403 1400 1399 1397 1395 1394 1392 1390 1389 1387 1386 1385 1385 1387 1387 1388 1389 1392 1395 1397 1400 1402 1404 1406 1409 1413
1433 1431 1429 1427 1424 1421 1419 1416 1413 1411 1408 1405 1403 1401 1400 1398 1397 1396 1394 1393 1392 1390 1388 1388 1388 1389 1389 1390 1390 1393 1397 1398 1400 1402 1404 1407 1409 1411
1433 1431 1429 1426 1423 1420 1418 1415 1412 1409 1407 1405 1403 1402 1401 1399 1398 1396 1395 1395 1394 1394 1392 1391 1391 1392 1390 1391 1392 1393 1396 1400 1401 1404 1405 1407 1408 1411
Wind_Speed
42 41 41 37 38 34 33 32 29 23 26 29 30 31 30 26 22 23 22 27 32 33 38 47 46 44 45 43 40 40 39 36 36 36 35 35 33 32
42 40 39 37 36 37 39 37 32 29 30 26 23 25 25 27 26 24 24 22 27 31 36 39 53 46 44 46 44 42 41 38 38 37 36 36 36 33
44 40 37 36 32 36 34 31 34 32 33 37 30 27 26 28 31 29 26 28 27 28 31 38 46 44 42 45 47 46 44 42 41 40 38 35 34 34
41 41 39 34 31 34 33 32 33 32 33 35 33 30 29 26 31 34 31 31 29 27 29 33 42 48 47 47 45 49 49 47 45 42 40 38 37 35
37 38 37 34 30 31 31 32 27 29 26 28 32 28 27 30 30 32 34 34 31 30 28 29 36 46 48 48 49 49 51 51 49 47 45 42 40 39
34 33 32 31 31 31 30 24 25 25 22 19 23 27 29 23 25 30 33 39 39 35 31 34 35 41 47 50 52 53 51 53 52 52 49 46 42 41
29 30 27 29 30 28 27 26 35 34 28 27 30 31 31 29 32 33 36 37 39 41 34 34 38 41 41 48 54 54 54 52 53 52 52 50 47 45
31 25 23 23 23 25 26 26 30 28 27 27 27 28 31 30 32 35 38 38 38 40 39 39 40 41 45 46 45 56 54 55 52 52 51 50 49 47
17 16 15 16 18 19 19 22 22 21 23 24 24 26 29 31 34 35 33 32 41 41 37 40 41 42 44 46 46 56 56 55 53 53 53 52 50 49
14 9 7 5 4 6 10 13 17 18 17 18 18 19 21 25 29 32 35 40 39 35 43 46 45 46 47 50 51 53 56 55 54 55 55 54 52 50
24 22 12 10 12 6 5 7 10 10 13 15 15 16 17 21 25 26 26 29 32 40 37 47 47 44 45 45 46 51 52 51 54 56 57 53 54 51
25 22 22 20 18 16 11 7 7 5 6 9 11 12 13 15 18 17 17 21 23 27 32 41 44 42 30 29 29 31 34 38 50 55 55 52 60 51
29 29 27 23 21 19 16 14 13 11 8 7 7 8 9 10 12 13 14 15 17 22 24 31 37 38 31 24 25 25 27 29 33 41 45 47 46 43
25 25 22 19 18 17 17 16 13 11 11 10 8 7 7 7 9 10 12 14 15 17 22 23 34 36 38 28 30 29 27 28 31 33 36 39 36 33
22 18 15 15 15 15 15 12 12 14 14 15 16 15 14 12 11 10 10 11 12 12 14 20 28 29 35 33 31 36 34 29 28 28 26 26 29 29
19 17 15 14 14 14 14 14 15 15 16 15 15 15 13 12 11 10 8 5 7 5 5 10 14 18 23 25 29 36 32 22 24 22 21 20 20 19
19 18 18 18 19 18 17 16 15 14 14 13 14 15 14 13 13 11 10 9 10 11 10 6 2 9 14 18 24 32 31 22 25 22 21 21 20 19
18 20 20 20 21 21 21 19 17 16 16 15 14 14 16 14 12 10 9 9 10 12 13 14 11 12 18 21 22 26 25 27 24 22 20 21 20 18
23 22 20 20 18 20 17 18 19 18 14 15 14 13 12 10 11 10 9 7 9 10 10 9 9 14 21 25 25 22 24 24 24 22 19 17 17 14
17 19 20 17 16 17 18 15 16 15 14 13 11 12 13 14 12 11 9 7 6 6 8 9 8 10 18 23 22 21 18 19 19 18 19 17 16 11
18 16 18 19 15 13 14 14 12 13 11 11 12 9 10 13 13 10 11 10 6 5 6 8 11 9 8 11 20 20 17 16 14 14 15 14 12 9
19 16 14 17 19 13 12 11 12 10 9 8 8 10 8 7 9 10 8 10 10 8 6 6 7 8 7 10 14 14 13 11 9 7 7 8 13 11
21 19 14 15 17 16 15 13 10 12 11 4 5 6 10 8 5 4 6 4 5 7 7 6 6 4 4 6 7 7 8 9 8 7 8 8 9 10
Wind_Direction
223 226 233 235 233 238 245 243 239 232 239 246 238 254 260 271 274 275 274 253 237 244 248 238 235 232 233 231 234 235 235 238 240 232 233 234 232 231
229 228 231 231 236 236 236 237 236 248 247 246 237 243 264 272 275 264 268 271 250 248 246 240 234 228 231 233 234 235 236 234 235 235 234 235 234 232
232 228 228 230 226 234 237 243 243 239 244 256 256 253 256 265 269 265 267 272 258 263 251 238 232 226 229 235 236 237 237 235 235 236 237 238 236 234
226 222 223 227 226 232 238 248 246 251 256 262 264 270 270 258 263 272 273 272 271 263 260 247 233 224 227 232 233 238 237 236 237 238 237 238 237 238
226 227 224 227 222 227 239 249 256 259 261 262 273 273 268 275 271 268 271 269 276 273 260 247 239 235 234 238 236 235 237 236 236 238 238 238 237 238
228 226 222 222 225 234 234 244 251 252 246 251 262 271 272 272 264 269 262 266 274 270 261 255 249 244 244 241 239 237 238 237 237 238 239 239 240 239
201 198 207 215 221 228 223 242 261 247 253 258 260 266 270 276 277 279 269 262 268 271 265 261 257 254 248 245 242 236 237 238 237 237 239 239 240 241
183 183 201 212 214 222 230 237 240 259 264 265 267 269 271 269 273 273 270 270 247 262 268 268 269 259 258 250 251 235 234 235 236 236 237 238 240 242
155 167 185 202 219 232 242 251 258 257 262 266 270 272 274 270 264 260 262 256 253 259 262 260 266 266 260 253 252 242 237 231 232 235 237 238 240 243
95 94 47 20 230 214 236 251 249 260 267 273 275 276 274 272 269 267 262 261 258 258 259 254 254 260 251 250 248 242 235 231 230 231 235 238 240 242
62 62 64 33 9 346 249 257 250 264 276 282 282 282 287 286 281 282 274 263 265 261 262 247 244 245 240 241 240 237 235 231 228 229 230 232 240 235
50 50 52 44 36 35 22 359 330 309 295 290 289 292 295 295 301 300 287 275 264 268 258 236 234 233 220 229 230 232 231 230 225 225 226 227 240 228
45 45 44 31 26 29 31 27 24 12 358 334 316 302 293 296 297 303 303 297 275 258 259 241 232 223 214 199 208 221 226 224 220 220 221 222 214 227
42 41 37 31 31 31 32 31 26 20 22 11 9 1 355 341 333 332 327 317 301 275 257 245 234 226 215 197 190 195 196 200 203 197 191 197 205 202
34 34 30 27 31 35 35 33 36 39 40 31 30 27 20 12 2 352 347 339 320 294 265 242 231 239 230 221 198 190 187 189 193 193 191 192 194 198
20 20 23 24 25 28 29 30 30 34 37 28 24 24 26 24 18 20 7 351 10 3 298 259 246 234 230 225 219 196 195 173 182 185 184 178 173 178
13 13 16 17 14 16 20 20 24 26 29 27 22 20 20 22 29 28 35 45 59 61 57 69 182 210 195 194 187 191 187 174 172 170 170 166 167 173
12 19 20 20 20 12 8 8 10 15 20 20 22 23 19 16 21 31 36 50 69 80 87 90 108 144 157 150 167 167 165 162 163 168 174 173 167 174
23 17 18 18 17 7 5 11 8 9 13 19 17 18 15 12 20 26 41 64 81 89 96 116 137 153 146 126 140 161 165 169 171 170 170 171 171 181
35 20 7 2 7 5 3 10 9 3 13 7 10 26 22 13 19 23 29 43 69 95 98 102 112 145 158 145 144 147 161 166 176 174 172 172 175 182
14 15 3 353 354 357 4 356 360 358 358 10 14 16 36 33 21 21 20 16 29 65 98 101 99 101 140 158 154 149 157 166 174 177 174 174 177 187
359 1 359 348 344 345 345 345 348 334 341 8 3 21 29 31 34 17 22 31 16 23 54 88 101 99 115 150 156 158 165 165 160 158 170 187 179 180
348 347 349 342 333 342 345 341 334 332 330 326 24 37 25 9 3 32 21 9 75 50 51 79 106 107 99 142 154 146 143 149 149 156 165 187 194 191